TheGetRank SiteMap Page 2433
Home 2383 2384 2385 2386 2387 2388 2389 2390 2391 2392 2393 2394 2395 2396 2397 2398 2399 2400 2401 2402 2403 2404 2405 2406 2407 2408 2409 2410 2411 2412 2413 2414 2415 2416 2417 2418 2419 2420 2421 2422 2423 2424 2425 2426 2427 2428 2429 2430 2431 2432 2433 2434 2435 2436 2437 2438 2439 2440 2441 2442 2443 2444 2445 2446 2447 2448 2449 2450 2451 2452 2453 2454 2455 2456 2457 2458 2459 2460 2461 2462 2463 2464 2465 2466 2467 2468 2469 2470 2471 2472 2473 2474 2475 2476 2477 2478 2479 2480 2481 2482 2483
S.NO. Website Pagerank Alexa Rank Last Updated
2432000 doktortrachsel.ch 0 No Rank 2011-09-18 13:19:40
2432001 phoenixparknh.org.au 0 No Rank 2011-09-18 13:19:40
2432002 tenolyhepichax.narod.ru 0 240 2011-09-18 13:19:41
2432003 doindestin.com 0 No Rank 2011-09-18 13:19:45
2432004 mechochylahec.narod.ru 0 240 2011-09-18 13:19:46
2432005 dogue-allemand.ch 0 No Rank 2011-09-18 13:19:47
2432006 juracapressoc3000.tk 0 No Rank 2011-09-21 15:12:51
2432007 capco.ca 0 2962776 2011-09-18 13:19:50
2432008 stuartmcintosh.com 0 No Rank 2011-09-18 13:19:50
2432009 hanatychu.narod.ru 0 240 2011-09-18 13:19:52
2432010 sunday-in-the-park.com 0 4727685 2011-09-18 13:19:55
2432011 bcv.asn.au 0 No Rank 2011-09-18 13:19:57
2432012 armatadelletenebre.forumfree.it 0 1578 2011-09-18 13:19:57
2432013 ymzt.com 0 No Rank 2011-09-18 13:19:57
2432014 quechigythido.narod.ru 0 240 2011-09-18 13:19:57
2432015 dobryhumor.info 0 3434597 2011-09-18 13:19:59
2432016 dobrastolarnia.com 0 15602501 2011-09-18 13:20:00
2432017 sjzky.cn 0 12499945 2011-09-18 13:20:01
2432018 stylishdecorating.com 0 No Rank 2011-09-18 13:20:03
2432019 quareby.narod.ru 0 240 2011-09-18 13:20:03
2432020 dobbshondamendenhall.net 0 21782135 2011-09-18 13:20:05
2432021 yhmj.com 0 No Rank 2011-09-18 13:20:07
2432022 qateef.com 0 No Rank 2011-09-18 13:20:07
2432023 aedes.be 0 No Rank 2011-09-18 13:20:08
2432024 chisujethuxyone.narod.ru 0 240 2011-09-18 13:20:09
2432025 dndonlineproshop.com 0 No Rank 2011-09-18 13:20:10
2432026 dndtraveldestinations.com 0 No Rank 2011-09-18 13:20:11
2432027 7438.com 0 914694 2011-09-18 13:20:12
2432028 zytho.narod.ru 0 240 2011-09-18 13:20:14
2432029 xsgy.net 0 No Rank 2011-09-18 13:20:14
2432030 fwsw.com 0 21963268 2011-09-20 20:15:51
2432031 dmm4.org 0 No Rank 2011-09-18 13:20:15
2432032 jqyy.com 0 5217798 2011-09-18 13:20:16
2432033 xyiguj.narod.ru 0 240 2011-09-18 13:20:19
2432034 mykku.net 0 No Rank 2011-09-21 14:15:52
2432035 dmcaster.com 0 No Rank 2011-09-18 13:20:19
2432036 sundialvideo.com 0 No Rank 2011-09-18 13:20:20
2432037 ecvcd.com 0 27442581 2011-09-18 13:20:21
2432038 fapuchaxya.narod.ru 0 240 2011-09-18 13:20:25
2432039 dlimaging.net 0 No Rank 2011-09-18 13:20:26
2432040 xmdfl.com 0 8007406 2011-09-18 13:20:27
2432041 dlf-rockers.de 0 No Rank 2011-09-18 13:20:28
2432042 teachingtheoutsiders.com 0 No Rank 2011-09-18 13:20:28
2432043 sysbsb.de 0 6144377 2011-09-21 15:28:52
2432044 ignaciosolom726.livejournal.com 0 85 2011-09-18 13:20:30
2432045 mecuxya.narod.ru 0 240 2011-09-18 13:20:30
2432046 cnlxs.com 0 No Rank 2011-09-18 13:20:31
2432047 sweatshopmovement.com 0 No Rank 2011-09-18 13:20:33
2432048 dkc-atlas.com 0 1740413 2011-09-18 13:20:34
2432049 djrebirth.com 0 19432445 2011-09-18 13:20:36
2432050 levyperux.narod.ru 0 240 2011-09-18 13:20:36
2432051 gside.org 0 731336 2011-09-18 13:20:37
2432052 ecfcr.net 0 21273125 2011-09-21 15:28:13
2432053 djquizz.pl 0 No Rank 2011-09-18 13:20:39
2432054 suteli.de 0 9967253 2011-09-18 13:20:40
2432055 terra-solutions.net 0 21433615 2011-09-18 13:20:42
2432056 hofaah.de 0 24972099 2011-09-18 13:20:42
2432057 f-lib.com 0 434418 2011-09-18 13:20:43
2432058 thatswhatyouthink.com 0 9877066 2011-09-18 13:20:45
2432059 djkg.net 0 19811540 2011-09-18 13:20:47
2432060 djbwebsites.com 0 No Rank 2011-09-18 13:20:49
2432061 ef1386.dk 0 No Rank 2011-09-18 13:20:51
2432062 thehellocurve.com 0 No Rank 2011-09-18 13:20:52
2432063 division1movers.com 0 No Rank 2011-09-18 13:20:52
2432064 divineacademy.com 0 No Rank 2011-09-18 13:20:54
2432065 ev168.com 0 876993 2011-09-18 13:20:57
2432066 thedesigningedge.net 0 No Rank 2011-09-18 13:20:58
2432067 javlo.org 0 No Rank 2011-09-18 13:21:00
2432068 disposableproducts.cn 0 No Rank 2011-09-21 14:40:11
2432069 theelectricsandbox.com 0 No Rank 2011-09-18 13:21:04
2432070 disfruteconpoco.cl 0 1723654 2011-09-18 13:21:06
2432071 dirtbike5.net 0 No Rank 2011-09-18 13:21:12
2432072 dirtxxxtube.com 0 23147546 2011-09-18 13:21:12
2432073 sfmie.com 0 9796978 2011-09-18 13:21:13
2432074 thepineapplegroupllc.com 0 No Rank 2011-09-18 13:21:16
2432075 dirkschmidt.info 0 No Rank 2011-09-18 13:21:17
2432076 dingleberriesmusic.com 0 No Rank 2011-09-18 13:21:22
2432077 thetwobitempire.com 0 No Rank 2011-09-18 13:21:22
2432078 ddizi.com 0 4906 2011-09-18 13:21:23
2432079 jemfz.com 0 No Rank 2011-09-18 13:21:28
2432080 wewet.com 0 No Rank 2011-09-18 13:21:29
2432081 fzxgx.com 0 No Rank 2011-09-18 13:21:29
2432082 thehistoricunionhotel.com 0 9757282 2011-09-18 13:21:29
2432083 dinamizanet.net 0 No Rank 2011-09-18 13:21:31
2432084 dinell.pl 0 11865097 2011-09-18 13:21:31
2432085 dybbk.com 0 No Rank 2011-09-18 13:21:33
2432086 avsmg.com 0 375339 2011-09-18 13:21:33
2432087 tezel.net 0 25867733 2011-09-21 14:10:25
2432088 theurbanpet.net 0 9145249 2011-09-18 13:21:37
2432089 dimitrovgradbg.com 0 1861387 2011-09-18 13:21:39
2432090 hiict.com 0 27121858 2011-09-18 13:21:39
2432091 dimitrisurf.com 0 19416769 2011-09-18 13:21:40
2432092 hiing.net 0 1052216 2011-09-18 13:21:42
2432093 dikiy-kamen.com 0 2931228 2011-09-18 13:21:45
2432094 trans-expedite.com 0 No Rank 2011-09-18 13:21:46
2432095 digitium.org 0 27133517 2011-09-21 14:42:36
2432096 toxiclipstickproductions.com 0 No Rank 2011-09-18 13:21:48
2432097 nba98.com 0 261209 2011-09-18 13:21:49
2432098 digital-idesigns.com 0 No Rank 2011-09-18 13:21:50
2432099 digiretus.hu 0 1757093 2011-09-18 13:21:54
2432100 ucangotocollege.org 0 9158894 2011-09-18 13:21:56
2432101 digestivediseasecenterpb.com 0 No Rank 2011-09-18 13:21:59
2432102 difficultdialogues.org 0 11551741 2011-09-18 13:22:01
2432103 broome.us 0 1066074 2011-09-18 13:22:03
2432104 dn-ua.com 0 1963809 2011-09-18 13:22:04
2432105 ddrmm.com 0 873906 2011-09-21 14:49:28
2432106 differenceofopinion.net 0 No Rank 2011-09-18 13:22:04
2432107 mymmu.net 0 691808 2011-09-18 13:22:07
2432108 tysonfund.org 0 11056296 2011-09-18 13:22:08
2432109 dieselperformance.ca 0 24190910 2011-09-18 13:22:09
2432110 ewarez.net 0 148720 2011-09-18 13:22:10
2432111 atomsk.ru 0 2916994 2011-09-18 13:22:11
2432112 diecast-toy-vehicles.com 0 No Rank 2011-09-18 13:22:12
2432113 syfuda.com 0 No Rank 2011-09-18 13:22:12
2432114 vantageadvisoryservices.com 0 No Rank 2011-09-18 13:22:14
2432115 dicksoncatohomes.com 0 No Rank 2011-09-18 13:22:15
2432116 dicklaw.com 0 No Rank 2011-09-18 13:22:16
2432117 mech0r.com 0 8577340 2011-09-18 13:22:18
2432118 leicar.com 0 22664513 2011-09-18 13:22:20
2432119 jst-sz.com 0 No Rank 2011-09-21 14:51:12
2432120 dicenerentola.se 0 No Rank 2011-09-18 13:22:21
2432121 verstaresearch.com 0 7384704 2011-09-18 13:22:21
2432122 xinark.com 0 No Rank 2011-09-18 13:22:24
2432123 diazandsonslandscaping.com 0 No Rank 2011-09-18 13:22:27
2432124 hansa98.hu 0 No Rank 2011-09-18 13:22:28
2432125 flinkbs.nl 0 No Rank 2011-09-18 13:22:29
2432126 stardoll.blackberrysmoothie.com 0 No Rank 2011-09-18 13:22:29
2432127 dianossaldainiai.puslapiai.lt 0 81007 2011-09-18 13:22:30
2432128 zhaizl.net 0 No Rank 2011-09-18 13:22:30
2432129 j-vr.net 0 17749887 2011-09-21 14:23:16
2432130 ovkaart.nu 0 No Rank 2011-09-18 13:22:32
2432131 upperglasswindowcleaning.com 0 No Rank 2011-09-18 13:22:33
2432132 diamonddrycarpet.com 0 No Rank 2011-09-18 13:22:35
2432133 dialtone.com.ua 0 No Rank 2011-09-18 13:22:37
2432134 nicoson.cn 0 No Rank 2011-09-21 15:28:09
2432135 dialog-steuerberatung.de 0 No Rank 2011-09-18 13:22:40
2432136 stocgie4718.k0t.biz 0 No Rank 2011-09-18 13:22:41
2432137 xmgbqg.com 0 No Rank 2011-09-21 15:31:18
2432138 vigrx.ws 0 No Rank 2011-09-18 13:22:42
2432139 old.med.blackberrysmoothie.com 0 No Rank 2011-09-18 13:22:43
2432140 baocars.cn 0 5635209 2011-09-18 13:22:43
2432141 vintagecannondale.com 0 2202968 2011-09-18 13:22:46
2432142 armdsp.com 0 11666497 2011-09-18 13:22:46
2432143 dhammikakalapuge.com 0 18050626 2011-09-18 13:22:46
2432144 shgemc.com 0 No Rank 2011-09-21 14:35:46
2432145 vintageinstrumentrental.com 0 No Rank 2011-09-18 13:22:52
2432146 tzpabx.com 0 15139968 2011-09-18 13:22:52
2432147 dfwmts.org 0 8104102 2011-09-21 15:29:13
2432148 warez-realportal.ru 0 2754687 2011-09-18 13:22:55
2432149 hutting.nu 0 No Rank 2011-09-18 13:22:57
2432150 zhaizl.org 0 No Rank 2011-09-18 13:22:57
2432151 mystiek.nl 0 4293525 2011-09-18 13:22:58
2432152 teopace.nl 0 No Rank 2011-09-18 13:22:58
2432153 biosoil.ru 0 26649519 2011-09-18 13:22:59
2432154 dfunkband.com 0 No Rank 2011-09-18 13:22:59
2432155 tripqq.com 0 No Rank 2011-09-18 13:23:00
2432156 vogelstudio.com 0 No Rank 2011-09-18 13:23:01
2432157 gemelli.be 0 No Rank 2011-09-18 13:23:05
2432158 ezylet.com 0 4013428 2011-09-21 14:15:58
2432159 devitraders.com 0 No Rank 2011-09-18 13:23:07
2432160 urbanis.fr 0 10735197 2011-09-18 13:23:10
2432161 wccslo.org 0 15385989 2011-09-18 13:23:13
2432162 devign.me 0 2012368 2011-09-18 13:23:14
2432163 sysbil.com 0 2276313 2011-09-18 13:23:17
2432164 wallybloss.com 0 20556825 2011-09-18 13:23:18
2432165 deviationmusic.net 0 3550244 2011-09-18 13:23:20
2432166 cirkus.org 0 No Rank 2011-09-18 13:23:22
2432167 saltro.com 0 No Rank 2011-09-18 13:23:22
2432168 hiikun.net 0 4085610 2011-09-18 13:23:24
2432169 huayi8.com 0 6454437 2011-09-18 13:23:25
2432170 sysbin.com 0 2165201 2011-09-18 13:23:25
2432171 westhollywoodcentral.com 0 15211269 2011-09-18 13:23:27
2432172 zgn.waw.pl 0 1082169 2011-09-18 13:23:30
2432173 jia100.com 0 No Rank 2011-09-18 13:23:31
2432174 welcomespot.com 0 No Rank 2011-09-18 13:23:31
2432175 deviantminds-epicene.com 0 No Rank 2011-09-18 13:23:32
2432176 sysbird.jp 0 1926955 2011-09-18 13:23:35
2432177 broom9.com 0 3331404 2011-09-18 13:23:35
2432178 bioresonance-therapy.com 0 15207284 2011-09-18 13:23:35
2432179 wmdappraisals.com 0 No Rank 2011-09-18 13:23:37
2432180 devambez.com 0 No Rank 2011-09-18 13:23:39
2432181 mncgpt.com 0 260063 2011-09-18 13:23:40
2432182 dgzy.cc 0 16055880 2011-09-21 15:34:48
2432183 wisdomhealthcare.net 0 No Rank 2011-09-18 13:23:42
2432184 deutermanngroup.com 0 No Rank 2011-09-18 13:23:44
2432185 xmax99.com 0 17007434 2011-09-18 13:23:45
2432186 drkhir.com 0 1511294 2011-09-18 13:23:46
2432187 detroitfilmproduction.com 0 No Rank 2011-09-18 13:23:46
2432188 plus-z.com 0 27977704 2011-09-18 13:23:50
2432189 womenspress-slo.org 0 5670334 2011-09-18 13:23:51
2432190 lesleymodel.com 0 22212894 2011-09-18 13:23:53
2432191 ui-ceo.org 0 2611430 2011-09-18 13:23:54
2432192 detectives-europeens.com 0 24655672 2011-09-18 13:23:55
2432193 detfor.ru 0 1130555 2011-09-18 13:23:55
2432194 awgame.com 0 No Rank 2011-09-21 14:52:03
2432195 blackboard.qut.edu.au 0 27880 2011-09-18 13:23:56
2432196 693bst.com 0 No Rank 2011-09-18 13:23:57
2432197 dbox2.info 0 2988217 2011-09-18 13:23:59
2432198 deskarati.com 0 3866964 2011-09-18 13:24:01
2432199 bokab2b.se 0 17102828 2011-09-18 13:24:01
2432200 maccast.de 0 No Rank 2011-09-18 13:24:05
2432201 zwergeland.com 0 No Rank 2011-09-18 13:24:07
2432202 asiancuriocabinet.tk 0 No Rank 2011-09-21 15:15:47
2432203 qutvirtual.qut.edu.au 0 27880 2011-09-18 13:24:08
2432204 designsbycozyquarters.com 0 23434429 2011-09-18 13:24:08
2432205 designtec1.com 0 No Rank 2011-09-18 13:24:11
2432206 steffanomotors.com 0 No Rank 2011-09-18 13:24:11
2432207 designgroup.in 0 No Rank 2011-09-18 13:24:13
2432208 library.qut.edu.au 0 27880 2011-09-18 13:24:15
2432209 yuzhucn.cn 0 No Rank 2011-09-18 13:24:16
2432210 designerdoors478.com 0 No Rank 2011-09-18 13:24:16
2432211 designbystacy.com 0 No Rank 2011-09-18 13:24:20
2432212 51glue.com 0 No Rank 2011-09-18 13:24:21
2432213 xmlyyy.com 0 No Rank 2011-09-18 13:24:22
2432214 design-andreiamonteiro.com 0 No Rank 2011-09-18 13:24:23
2432215 jlyyzx.com 0 No Rank 2011-09-18 13:24:23
2432216 weidle.com 0 No Rank 2011-09-18 13:24:24
2432217 kenubo.com 0 No Rank 2011-09-18 13:24:26
2432218 yourhartford.com 0 No Rank 2011-09-18 13:24:26
2432219 desertskyweb.com 0 No Rank 2011-09-18 13:24:27
2432220 creativeindustries.qut.edu.au 0 27880 2011-09-18 13:24:31
2432221 desertalluremedspa.com 0 18255055 2011-09-18 13:24:31
2432222 dereng.com 0 No Rank 2011-09-18 13:24:33
2432223 20undso.de 0 19542592 2011-09-18 13:24:34
2432224 sexclubs985.sexdate1nederland.info 0 No Rank 2011-09-18 13:24:34
2432225 xinhgai.vn 0 28435737 2011-09-18 13:24:37
2432226 libria.net 0 No Rank 2011-09-18 13:24:39
2432227 depressioncarer.com 0 12456295 2011-09-18 13:24:40
2432228 depresszio.net 0 10577274 2011-09-18 13:24:40
2432229 bestwirelessusa.com 0 No Rank 2011-09-18 13:24:41
2432230 cnewus1395.k0t.biz 0 No Rank 2011-09-18 13:24:43
2432231 sallom.websitehostfree.com 0 1729529 2011-09-18 13:24:44
2432232 law.qut.edu.au 0 27880 2011-09-18 13:24:45
2432233 dingcam4807.k0t.biz 0 No Rank 2011-09-18 13:24:46
2432234 singlesparties430.sexdate1nederland.info 0 No Rank 2011-09-18 13:24:47
2432235 deportescaninos.com 0 No Rank 2011-09-18 13:24:50
2432236 theghr.com 0 No Rank 2011-09-18 13:24:51
2432237 g2play.net 0 52629 2011-09-18 13:24:53
2432238 bee.qut.edu.au 0 27880 2011-09-18 13:24:54
2432239 pro-jw.com 0 No Rank 2011-09-18 13:24:57
2432240 depema.ag 0 No Rank 2011-09-18 13:25:00
2432241 mks-cos.de 0 9267943 2011-09-18 13:25:03
2432242 studentservices.qut.edu.au 0 27880 2011-09-18 13:25:04
2432243 depawagility.com 0 No Rank 2011-09-18 13:25:06
2432244 saintjohnpaulii.blogspot.com 0 No Rank 2011-09-18 13:25:10
2432245 deolalikar.com 0 11804920 2011-09-18 13:25:10
2432246 for-home-security.com 0 2942130 2011-09-18 13:25:13
2432247 avbobo.com 0 196244 2011-09-18 13:25:14
2432248 careers.qut.edu.au 0 27880 2011-09-18 13:25:14
2432249 denverautoappraisers.com 0 No Rank 2011-09-18 13:25:16
2432250 salusamq.blogspot.com 0 17480991 2011-09-18 13:25:16
2432251 7dtest.com 0 922390 2011-09-18 13:25:17
2432252 spasvo.com 0 783285 2011-09-18 13:25:17
2432253 depok-grosir.com 0 27286767 2011-09-21 14:13:05
2432254 broomer.pl 0 1730440 2011-09-18 13:25:19
2432255 dennis.com.pl 0 18447761 2011-09-18 13:25:23
2432256 miomedi.de 0 509834 2011-09-18 13:25:23
2432257 ithelpdesk.qut.edu.au 0 27880 2011-09-18 13:25:23
2432258 sammie-howard.blogspot.com 0 No Rank 2011-09-18 13:25:24
2432259 gsmmania.pl 0 1969800 2011-09-18 13:25:26
2432260 demoduck.com 0 559299 2011-09-18 13:25:29
2432261 dementedrecords.com 0 No Rank 2011-09-18 13:25:33
2432262 saudistepfordwife.blogspot.com 0 7676773 2011-09-18 13:25:35
2432263 jetmann.com 0 No Rank 2011-09-18 13:25:35
2432264 anniwan.net 0 4611119 2011-09-18 13:25:38
2432265 demen-rose.com 0 No Rank 2011-09-18 13:25:38
2432266 lord-jo.com 0 187678 2011-09-18 13:25:39
2432267 deltechresins.com 0 No Rank 2011-09-20 21:06:46
2432268 scientificstation.blogspot.com 0 No Rank 2011-09-18 13:25:41
2432269 estrella.vic.edu.au 0 17550 2011-09-18 13:25:43
2432270 delaware-services.com 0 27858446 2011-09-18 13:25:45
2432271 iafsoft.com 0 13153354 2011-09-18 13:25:46
2432272 dejministry.com 0 No Rank 2011-09-18 13:25:47
2432273 e-n-e.co.jp 0 No Rank 2011-09-18 13:25:48
2432274 sea-animals.blogspot.com 0 No Rank 2011-09-18 13:25:48
2432275 dali331.com 0 3298173 2011-09-18 13:25:52
2432276 sdbarber.blogspot.com 0 24884645 2011-09-18 13:25:54
2432277 jbennot.com 0 No Rank 2011-09-18 13:25:55
2432278 scholarships.qut.edu.au 0 27880 2011-09-18 13:25:55
2432279 conagg.info 0 No Rank 2011-09-18 13:25:57
2432280 dejalovemanagement.com 0 No Rank 2011-09-18 13:25:57
2432281 deirr.com 0 No Rank 2011-09-18 13:25:58
2432282 scrapbitz-tutorialsandtemplates.blogspot.com 0 11072203 2011-09-18 13:26:00
2432283 hynu.edu.cn 0 663792 2011-09-21 14:55:39
2432284 enokida.net 0 No Rank 2011-09-18 13:26:04
2432285 dehelmintyzacja.pl 0 No Rank 2011-09-18 13:26:05
2432286 seanmayrun.blogspot.com 0 No Rank 2011-09-18 13:26:08
2432287 info-tax.eu 0 No Rank 2011-09-18 13:26:10
2432288 ici.qut.edu.au 0 27880 2011-09-18 13:26:13
2432289 seanbankhead.blogspot.com 0 6167382 2011-09-18 13:26:14
2432290 k-hagag.com 0 28495338 2011-09-18 13:26:17
2432291 sexonomics-uk.blogspot.com 0 1356303 2011-09-18 13:26:20
2432292 dedicatorias.eu 0 22727289 2011-09-18 13:26:22
2432293 sci.muni.cz 0 30803 2011-09-18 13:26:26
2432294 europarl.ro 0 11439756 2011-09-18 13:26:27
2432295 decorcretedesign.com 0 No Rank 2011-09-18 13:26:27
2432296 deepbassunited.com 0 2925056 2011-09-18 13:26:29
2432297 equity.qut.edu.au 0 27880 2011-09-18 13:26:30
2432298 sexycoolasians.blogspot.com 0 No Rank 2011-09-18 13:26:33
2432299 vagianos.gr 0 No Rank 2011-09-18 13:26:33
2432300 decorativemirrors-store.com 0 18564820 2011-09-18 13:26:35
2432301 danifer.com 0 2169655 2011-09-18 13:26:35
2432302 decorativeconcreteetc.com 0 No Rank 2011-09-18 13:26:37
2432303 sexychurch.blogspot.com 0 No Rank 2011-09-18 13:26:39
2432304 decoracion-andalusi.com 0 6242893 2011-09-18 13:26:40
2432305 accel.co.jp 0 No Rank 2011-09-21 15:34:04
2432306 deckedbuilder.com 0 2569462 2011-09-18 13:26:42
2432307 elcoins.com 0 14079042 2011-09-18 13:26:43
2432308 mgmcomm.com 0 No Rank 2011-09-18 13:26:43
2432309 sexxy-tube.blogspot.com 0 No Rank 2011-09-18 13:26:45
2432310 decco.de 0 25442912 2011-09-18 13:26:48
2432311 decima.hu 0 No Rank 2011-09-18 13:26:52
2432312 sexylk7.blogspot.com 0 5618321 2011-11-21 14:52:56
2432313 debtbuyer.net 0 No Rank 2011-09-18 13:26:57
2432314 news.cfw.cn 0 18943 2011-09-18 13:27:00
2432315 debranche.com 0 No Rank 2011-09-18 13:27:01
2432316 debisellsazhomes.com 0 No Rank 2011-09-18 13:27:02
2432317 shadesofnatureky.blogspot.com 0 No Rank 2011-09-18 13:27:04
2432318 kickstart.qut.edu.au 0 27880 2011-09-18 13:27:07
2432319 consenso.be 0 No Rank 2011-09-18 13:27:08
2432320 debbiemcleod.net 0 No Rank 2011-09-18 13:27:08
2432321 debcomsk.ru 0 11796529 2011-09-18 13:27:09
2432322 sharpshootersccw.blogspot.com 0 No Rank 2011-09-18 13:27:10
2432323 uptonuk.net 0 No Rank 2011-09-18 13:27:16
2432324 sharegodsword.blogspot.com 0 No Rank 2011-09-18 13:27:16
2432325 dcphilippines.org 0 2286833 2011-09-18 13:27:20
2432326 gayfund.org 0 No Rank 2011-09-18 13:27:20
2432327 dday4you.com 0 17140794 2011-09-20 19:33:51
2432328 sheenadouglass.blogspot.com 0 No Rank 2011-09-18 13:27:22
2432329 dchsalumniassociation.com 0 23270263 2011-09-18 13:27:25
2432330 book.cfw.cn 0 18943 2011-09-18 13:27:29
2432331 shultsolean.blogspot.com 0 No Rank 2011-09-18 13:27:29
2432332 seec.com.cn 0 2280448 2011-09-18 13:27:30
2432333 koei-con.jp 0 No Rank 2011-09-18 13:27:31
2432334 point.autumnairconditioning.com 0 22723006 2011-09-18 13:27:32
2432335 lighting.qut.edu.au 0 27880 2011-09-18 13:27:32
2432336 pannasta.be 0 No Rank 2011-09-18 13:27:32
2432337 dbombdigital.com 0 9668382 2011-09-21 13:34:04
2432338 idee-regalo.dmail.it 0 77115 2011-09-18 13:27:33
2432339 commission-central.nadine.helmholtz-eos.de 0 535837 2011-09-21 13:16:24
2432340 sidneycrosbywebsite.blogspot.com 0 No Rank 2011-09-18 13:27:36
2432341 lrqausa.com 0 3308236 2011-09-18 13:27:37
2432342 mitutoyo.fr 0 6686074 2011-09-18 13:27:37
2432343 daybreakrotary.us 0 13226093 2011-09-18 13:27:40
2432344 daythong.com 0 949493 2011-09-18 13:27:40
2432345 game01.info 0 906182 2011-09-18 13:27:41
2432346 shopmeholic.blogspot.com 0 10961934 2011-09-18 13:27:41
2432347 catsbox.net 0 No Rank 2011-09-18 13:27:42
2432348 dawgsclub.com 0 13220030 2011-09-18 13:27:44
2432349 atelpro.com 0 No Rank 2011-09-18 13:27:45
2432350 appel3g.com 0 No Rank 2011-09-21 12:47:27
2432351 davidwinogrondspacetet.com 0 No Rank 2011-09-18 13:27:47
2432352 siriuswellness-nasara.blogspot.com 0 No Rank 2011-09-18 13:27:48
2432353 davidsfunfacts.com 0 No Rank 2011-09-18 13:27:50
2432354 doctor-sound.it 0 12081651 2011-09-18 13:27:51
2432355 davidmazur.com 0 20327971 2011-09-21 14:44:13
2432356 davidfunn.com 0 16775766 2011-09-18 13:27:56
2432357 openday.qut.edu.au 0 27880 2011-09-18 13:27:57
2432358 almargen.cl 0 No Rank 2011-09-18 13:27:57
2432359 melg.com.au 0 9602061 2011-09-18 13:27:59
2432360 yankeescents.com 0 773914 2011-09-18 13:27:59
2432361 similimateam.blogspot.com 0 3067695 2011-09-18 13:28:00
2432362 davidfrazie.com 0 11950449 2011-09-18 13:28:01
2432363 ghinwah.com 0 2458923 2011-09-18 13:28:01
2432364 neoreim.com 0 No Rank 2011-09-18 13:28:06
2432365 daviaud.net 0 No Rank 2011-09-18 13:28:06
2432366 daves-snowflakes.com 0 No Rank 2011-09-18 13:28:06
2432367 simplebellabusiness.blogspot.com 0 No Rank 2011-09-18 13:28:08
2432368 gakomp8575.k0t.biz 0 No Rank 2011-09-18 13:28:09
2432369 qs-home.com 0 No Rank 2011-09-18 13:28:11
2432370 alumni.qut.edu.au 0 27880 2011-09-18 13:28:11
2432371 davemooring.com 0 No Rank 2011-09-18 13:28:13
2432372 smithpixdaily.blogspot.com 0 No Rank 2011-09-18 13:28:14
2432373 daughertylawpc.com 0 23146967 2011-09-18 13:28:16
2432374 europarl.lt 0 No Rank 2011-09-18 13:28:16
2432375 ax.dmail.it 0 77115 2011-09-18 13:28:17
2432376 socialproblems.blogspot.com 0 No Rank 2011-09-18 13:28:20
2432377 dating-indian-women.com 0 No Rank 2011-09-18 13:28:21
2432378 sportwetten1.com 0 No Rank 2011-09-21 13:01:41
2432379 datamaxkc.com 0 16694051 2011-09-18 13:28:22
2432380 smurfsmovietrailer.blogspot.com 0 4200729 2011-09-18 13:28:25
2432381 otwaycoast.org.au 0 16741804 2011-09-18 13:28:28
2432382 usedbmw.org 0 No Rank 2011-09-18 13:28:30
2432383 p-blair.net 0 No Rank 2011-09-18 13:28:31
2432384 dcomfort.it 0 No Rank 2011-09-18 13:28:31
2432385 solowomanrv.blogspot.com 0 14507565 2011-09-18 13:28:32
2432386 dartoo.com 0 No Rank 2011-09-18 13:28:32
2432387 databriefcase.com 0 20175121 2011-09-18 13:28:33
2432388 buyijoy.com 0 26521996 2011-09-18 13:28:36
2432389 b7r-host.com 0 3802376 2011-09-18 13:28:38
2432390 bandesh.com 0 No Rank 2011-09-18 13:28:39
2432391 goto520.com 0 No Rank 2011-09-18 13:28:39
2432392 darkhorsetattoo.net 0 18080797 2011-09-18 13:28:39
2432393 danyrobitaille.com 0 No Rank 2011-09-18 13:28:42
2432394 sockamania.blogspot.com 0 No Rank 2011-09-18 13:28:45
2432395 eaea.gov.eg 0 20496090 2011-09-18 13:28:45
2432396 ting731.com 0 21463276 2011-09-18 13:28:45
2432397 riscorv.com 0 11070076 2011-09-18 13:28:46
2432398 sportivo.gr 0 28166709 2011-09-18 13:28:47
2432399 quigenitori.dmail.it 0 77115 2011-09-18 13:28:47
2432400 danutatop.pl 0 No Rank 2011-09-18 13:28:48
2432401 spiderman-4-trailer.blogspot.com 0 596249 2011-09-18 13:28:52
2432402 eut1946.org 0 No Rank 2011-09-18 13:28:53
2432403 surfpdf.org 0 No Rank 2011-09-18 13:28:54
2432404 ceve.com.tw 0 No Rank 2011-09-18 13:28:54
2432405 aemf.qut.edu.au 0 27880 2011-09-18 13:28:55
2432406 danneece.com 0 No Rank 2011-09-18 13:28:56
2432407 dmail.auto.it 0 42613 2011-09-18 13:28:57
2432408 vonhawk.com 0 No Rank 2011-09-18 13:28:58
2432409 spiritualemergency.blogspot.com 0 7367873 2011-09-18 13:28:58
2432410 danilino.com 0 No Rank 2011-09-18 13:29:00
2432411 danigirao.com.br 0 No Rank 2011-09-18 13:29:02
2432412 spongetheband.blogspot.com 0 No Rank 2011-09-18 13:29:04
2432413 nebotacticalflashlight.gymshopstore.com 0 15218214 2011-09-18 13:29:04
2432414 danielvalchev.com 0 14578487 2011-09-18 13:29:06
2432415 feo.ed.qut.edu.au 0 27880 2011-09-18 13:29:08
2432416 danielothman.com 0 No Rank 2011-09-18 13:29:08
2432417 store.dmail.it 0 77115 2011-09-18 13:29:09
2432418 aristot.net 0 25325858 2011-09-18 13:29:11
2432419 stalkingcriminalsoninternet.blogspot.com 0 23921045 2011-09-18 13:29:11
2432420 costill.com 0 No Rank 2011-09-18 13:29:13
2432421 marixuk.com 0 11360742 2011-09-18 13:29:14
2432422 daneshpanah.com 0 No Rank 2011-09-18 13:29:14
2432423 spmresort.blogspot.com 0 13710858 2011-09-18 13:29:15
2432424 suirens.com 0 1807338 2011-09-18 13:29:16
2432425 shoegle.com 0 8184972 2011-09-18 13:29:18
2432426 edibrico.dmail.it 0 77115 2011-09-18 13:29:20
2432427 dandarraghrfb.net.tf 0 No Rank 2011-09-18 13:29:21
2432428 hooners.com 0 20419591 2011-09-18 13:29:21
2432429 dancer.pl 0 No Rank 2011-09-18 13:29:22
2432430 standingonthebox.blogspot.com 0 2739602 2011-09-18 13:29:23
2432431 ahfy168.com 0 No Rank 2011-09-18 13:29:23
2432432 danandpatsy.com 0 No Rank 2011-09-18 13:29:29
2432433 buonosconto.dmail.it 0 77115 2011-09-18 13:29:31
2432434 orientation.qut.edu.au 0 27880 2011-09-18 13:29:33
2432435 damonrvsonline.com 0 23441685 2011-09-18 13:29:35
2432436 twirked.com 0 No Rank 2011-09-18 13:29:36
2432437 damalinyc.com 0 4309011 2011-09-18 13:29:39
2432438 dublburnrgrddl.de.vu 0 No Rank 2011-09-18 13:29:39
2432439 dallasdoors.com 0 4462591 2011-09-18 13:29:42
2432440 stickylinks.info 0 504985 2011-09-18 13:29:46
2432441 stmichaelccd.blogspot.com 0 No Rank 2011-09-18 13:29:47
2432442 daleelpetroleum.com 0 21012114 2011-09-18 13:29:48
2432443 xaf.qut.edu.au 0 27880 2011-09-18 13:29:48
2432444 everliv.org 0 No Rank 2011-09-18 13:29:49
2432445 cyberdogsmagazine.dmail.it 0 77115 2011-09-18 13:29:51
2432446 ezmatic.com 0 No Rank 2011-09-18 13:29:52
2432447 sets2go.com 0 No Rank 2011-09-18 13:29:54
2432448 stax-o-wax.blogspot.com 0 4290080 2011-09-18 13:29:54
2432449 dakotastar.org 0 14317692 2011-09-18 13:29:56
2432450 labmonitor.qut.edu.au 0 27880 2011-09-18 13:29:57
2432451 stevenjacksonracing.blogspot.com 0 No Rank 2011-09-18 13:30:00
2432452 dakardrift.pl 0 11841427 2011-09-18 13:30:01
2432453 sicurauto.dmail.it 0 77115 2011-09-18 13:30:02
2432454 touhill.org 0 2213269 2011-09-18 13:30:03
2432455 clan-es.com 0 No Rank 2011-09-18 13:30:03
2432456 dailytrafficblueprint.com 0 No Rank 2011-09-18 13:30:07
2432457 stonecrabkids.blogspot.com 0 No Rank 2011-09-18 13:30:07
2432458 sarua.ed.qut.edu.au 0 27880 2011-09-18 13:30:09
2432459 blog.cfw.cn 0 18943 2011-09-18 13:30:09
2432460 directoryseo.org 0 11801796 2011-09-18 13:30:10
2432461 m-han.co.jp 0 No Rank 2011-09-18 13:30:11
2432462 daifu-sapporo.com 0 No Rank 2011-09-18 13:30:11
2432463 supportsockshop.blogspot.com 0 15637936 2011-09-18 13:30:12
2432464 mtsubshwd-73c9.de.vu 0 No Rank 2011-09-18 13:30:16
2432465 dahliadivas.com 0 14929967 2011-09-18 13:30:17
2432466 omxperts.de 0 303828 2011-09-18 13:30:18
2432467 das.qut.edu.au 0 27880 2011-09-18 13:30:19
2432468 suzettenicole.blogspot.com 0 2834645 2011-09-18 13:30:19
2432469 dagrasso.tomaszow.pl 0 4061247 2011-09-18 13:30:20
2432470 msn.dmail.it 0 77115 2011-09-18 13:30:22
2432471 daghmiagri.com 0 No Rank 2011-09-18 13:30:25
2432472 dnblife.com 0 5011262 2011-09-21 15:33:24
2432473 susansbackwardsglob.blogspot.com 0 No Rank 2011-09-18 13:30:27
2432474 dadecitylaw.com 0 7042508 2011-09-18 13:30:29
2432475 nextplora.dmail.it 0 77115 2011-09-18 13:30:32
2432476 survivorwisdom.blogspot.com 0 No Rank 2011-09-18 13:30:33
2432477 daasports.org 0 No Rank 2011-09-18 13:30:38
2432478 cabuzel.com 0 8145194 2011-09-18 13:30:38
2432479 symposiumrestaurant.blogspot.com 0 No Rank 2011-09-18 13:30:39
2432480 yinlilai.cn 0 10021416 2011-09-18 13:30:42
2432481 daapworks.com 0 No Rank 2011-09-18 13:30:43
2432482 i-cazare.ro 0 No Rank 2011-09-18 13:30:43
2432483 swtyrerecyclers.blogspot.com 0 No Rank 2011-09-18 13:30:44
2432484 dmail.smartshop.it 0 190745 2011-09-18 13:30:45
2432485 mouhatu.com 0 8906914 2011-09-18 13:30:48
2432486 interchange.qut.edu.au 0 27880 2011-09-18 13:30:49
2432487 tabijoon.blogspot.com 0 No Rank 2011-09-18 13:30:50
2432488 hlclub.info 0 28371433 2011-09-18 13:30:51
2432489 da-online.org 0 14797245 2011-09-18 13:30:52
2432490 sallom.hostingwithu.com 0 3164293 2011-09-18 13:30:55
2432491 palantin.ru 0 7927609 2011-09-18 13:30:56
2432492 ilgiustoprezzo.dmail.it 0 77115 2011-09-18 13:30:58
2432493 dab-bank.de 0 20875 2011-09-18 13:31:00
2432494 d25701k.info 0 No Rank 2011-09-18 13:31:01
2432495 teslaworks.blogspot.com 0 No Rank 2011-09-18 13:31:03
2432496 hofatex.net 0 8641112 2011-09-18 13:31:04
2432497 hufkens.net 0 2258784 2011-09-18 13:31:06
2432498 cyrussamii.com 0 No Rank 2011-09-18 13:31:07
2432499 rupdpsi.com 0 22926154 2011-09-18 13:31:13
2432500 giallozafferano.dmail.it 0 77115 2011-09-18 13:31:14
2432501 tallermaracuja.blogspot.com 0 No Rank 2011-09-18 13:31:16
2432502 cyprussecrethotels.com 0 No Rank 2011-09-18 13:31:16
2432503 ajhodel.com 0 No Rank 2011-09-18 13:31:17
2432504 gamearmy.ru 0 246038 2011-09-18 13:31:22
2432505 cypress-creek-apts.com 0 20377115 2011-09-18 13:31:23
2432506 tallbeautifulwomen.blogspot.com 0 No Rank 2011-09-18 13:31:23
2432507 588rt.com 0 1677938 2011-09-18 13:31:24
2432508 vkmenus.com 0 No Rank 2011-09-18 13:31:26
2432509 contactitalia.it 0 5256773 2011-09-18 13:31:28
2432510 the-princess-and-the-frog--trailer.blogspot.com 0 28112623 2011-09-18 13:31:30
2432511 compnar2301.k0t.biz 0 No Rank 2011-09-18 13:31:34
2432512 europarl.si 0 17289130 2011-09-21 13:35:21
2432513 kingswarez.ru 0 2360662 2011-09-18 13:31:34
2432514 theauxblog.blogspot.com 0 No Rank 2011-09-18 13:31:36
2432515 skyphix.com 0 No Rank 2011-09-18 13:31:37
2432516 pannomagico.dmail.it 0 77115 2011-09-18 13:31:38
2432517 cynthiavowell.com 0 No Rank 2011-09-18 13:31:38
2432518 europarl.ee 0 25885905 2011-09-21 15:29:40
2432519 teatown.com 0 22931132 2011-09-18 13:31:40
2432520 theballasttrust.blogspot.com 0 No Rank 2011-09-18 13:31:41
2432521 tar-tan.com 0 No Rank 2011-09-18 13:31:45
2432522 nimarsrl.it 0 18016973 2011-09-18 13:31:46
2432523 commercialrealestate.com.au 0 99026 2011-09-18 13:31:46
2432524 kromatec.de 0 11688603 2011-09-18 13:31:48
2432525 fzluyan.com 0 No Rank 2011-09-18 13:31:54
2432526 thedaytheclowncried.blogspot.com 0 No Rank 2011-09-18 13:31:54
2432527 daydream.se 0 9010784 2011-09-18 13:31:58
2432528 nicoline.it 0 3610614 2011-09-21 14:23:10
2432529 thebaggageroom.blogspot.com 0 No Rank 2011-09-18 13:31:59
2432530 funmaps.com 0 762592 2011-09-18 13:31:59
2432531 daarulmukhtar.org 0 21201545 2011-09-18 13:32:02
2432532 hkmovie.com 0 No Rank 2011-09-18 13:32:02
2432533 cyberlinks.net 0 No Rank 2011-09-18 13:32:03
2432534 broomie.net 0 5791778 2011-09-18 13:32:04
2432535 dirk-ela.de 0 No Rank 2011-09-18 13:32:06
2432536 thefashionsmoke.blogspot.com 0 10845946 2011-09-18 13:32:06
2432537 cybercuse.com 0 No Rank 2011-09-18 13:32:09
2432538 cybergothgeek.net 0 9204582 2011-09-18 13:32:10
2432539 jbdunes.com 0 No Rank 2011-09-18 13:32:12
2432540 vikecn.com 0 10704 2011-09-21 11:06:48
2432541 resust8260.k0t.biz 0 No Rank 2011-09-18 13:32:14
2432542 webmail.altanet.it 0 838402 2011-09-18 13:32:16
2432543 cwtransportation.com 0 No Rank 2011-09-18 13:32:17
2432544 yiyishequ.pen.io 0 10532 2011-09-18 13:32:17
2432545 theheightslifehouston.blogspot.com 0 11145960 2011-09-18 13:32:20
2432546 scavolinibari.it 0 No Rank 2011-09-18 13:32:21
2432547 cvccourier.com 0 No Rank 2011-09-18 13:32:23
2432548 glasstec.de 0 1270239 2011-09-18 13:32:26
2432549 keomasalotti.it 0 26531198 2011-09-18 13:32:28
2432550 biosolar.hu 0 1413127 2011-09-18 13:32:28
2432551 cv-line.eu 0 6257278 2011-09-18 13:32:28
2432552 87412386.com 0 3331544 2011-09-18 13:32:30
2432553 thegoldbrain.blogspot.com 0 11269653 2011-09-18 13:32:31
2432554 cutebeachdecor.com 0 4845142 2011-09-18 13:32:31
2432555 hotgirls.gr 0 15849316 2011-09-18 13:32:32
2432556 linkcircuit.info 0 409655 2011-09-18 13:32:32
2432557 italsemi.it 0 No Rank 2011-09-18 13:32:34
2432558 dati8557.k0t.biz 0 No Rank 2011-09-18 13:32:34
2432559 cusd1.org 0 21402413 2011-09-18 13:32:35
2432560 cursillo-ar.com 0 No Rank 2011-09-18 13:32:37
2432561 pedoneveicoli.it 0 No Rank 2011-09-21 14:29:19
2432562 goingtouni.gov.au 0 363281 2011-09-18 13:32:41
2432563 thepipelineshow.blogspot.com 0 689091 2011-09-18 13:32:41
2432564 curacaopensionado.com 0 18602672 2011-09-18 13:32:42
2432565 trafficbrand.com 0 680648 2011-09-18 13:32:45
2432566 themiddleof11.blogspot.com 0 No Rank 2011-09-18 13:32:45
2432567 martimucci.it 0 838402 2011-09-18 13:32:46
2432568 cumbriawheelchairsports.com 0 No Rank 2011-09-18 13:32:48
2432569 cup-world.net 0 No Rank 2011-09-18 13:32:49
2432570 therogsays.blogspot.com 0 28433526 2011-09-18 13:32:50
2432571 tsjufeng.cn 0 No Rank 2011-09-18 13:32:51
2432572 scortetrasporti.it 0 No Rank 2011-09-18 13:32:52
2432573 www4.allkidsfurniture.weebly.com 0 No Rank 2011-09-18 13:32:52
2432574 hzjx.com.cn 0 No Rank 2011-09-18 13:32:53
2432575 ncc.nsw.gov.au 0 3814 2011-09-18 13:32:54
2432576 cartoline.email.it 0 9516 2011-09-18 13:32:56
2432577 thespeycompany.blogspot.com 0 11615176 2011-09-18 13:32:57
2432578 cukiernia-mierzejewscy.pl 0 No Rank 2011-09-18 13:32:58
2432579 turkmmo.net 0 24579950 2011-09-18 13:33:00
2432580 culisemedia.ro 0 12361395 2011-09-18 13:33:00
2432581 liceofermi.it 0 No Rank 2011-09-18 13:33:01
2432582 thescriptmusic.blogspot.com 0 14549106 2011-09-18 13:33:03
2432583 cuisine-vegetarienne.info 0 No Rank 2011-09-18 13:33:04
2432584 homepager.tripod.nadine.helmholtz-eos.de 0 535837 2011-09-21 15:30:05
2432585 gamberi.org 0 1051461 2011-09-18 13:33:05
2432586 mounares.tv 0 519115 2011-09-18 13:33:06
2432587 cubscoutpack131.com 0 No Rank 2011-09-18 13:33:07
2432588 notizie-online.it 0 838402 2011-09-18 13:33:08
2432589 apkrak2007.k0t.biz 0 No Rank 2011-09-18 13:33:08
2432590 theseams.blogspot.com 0 514987 2011-09-18 13:33:10
2432591 cubicinspirations.com 0 1391276 2011-09-18 13:33:11
2432592 cube65.com 0 27248650 2011-09-18 13:33:13
2432593 uscoast.net 0 No Rank 2011-09-18 13:33:13
2432594 parcoaltamurgia.it 0 1834144 2011-09-18 13:33:14
2432595 cubanrum.com 0 375948 2011-09-18 13:33:15
2432596 thetableofpromise.blogspot.com 0 2488127 2011-09-18 13:33:16
2432597 hataman.com 0 2381164 2011-09-18 13:33:18
2432598 iissdenora.it 0 No Rank 2011-09-18 13:33:18
2432599 ultrafc.com 0 No Rank 2011-09-18 13:33:19
2432600 bestwashingtondchotels.info 0 No Rank 2011-09-18 13:33:19
2432601 ctv-1.com 0 21102977 2011-09-21 13:25:59
2432602 oplavak.com 0 4118141 2011-09-18 13:33:22
2432603 budget-auto-rentals-lax-airport-los-angeles.cheapest-car-hire-los-angeles-lax-airport.com 0 No Rank 2011-09-18 13:33:22
2432604 rtistry.com 0 No Rank 2011-09-18 13:33:24
2432605 anvvf.it 0 16385929 2011-09-18 13:33:26
2432606 ctksystem.ru 0 5984778 2011-09-18 13:33:26
2432607 cteltd.com 0 No Rank 2011-09-18 13:33:27
2432608 roncallialtamura.it 0 3907132 2011-09-18 13:33:32
2432609 csrpromo.com 0 2747063 2011-09-18 13:33:33
2432610 connectwest.net.au 0 3622023 2011-09-18 13:33:33
2432611 thetiaraprojectinc.blogspot.com 0 No Rank 2011-09-18 13:33:34
2432612 www2.email.it 0 9516 2011-09-21 15:44:28
2432613 europarl.it 0 2299086 2011-09-18 13:33:35
2432614 csdhp.org 0 19454552 2011-09-18 13:33:37
2432615 soundvillage.it 0 No Rank 2011-09-18 13:33:38
2432616 elpesrl.it 0 10002759 2011-09-18 13:33:38
2432617 ubiblog.com 0 No Rank 2011-09-18 13:33:39
2432618 csbradshawconstruction.com 0 No Rank 2011-09-18 13:33:40
2432619 thetavernonthesquare.blogspot.com 0 No Rank 2011-09-18 13:33:40
2432620 dasgreif.de 0 7446575 2011-09-18 13:33:41
2432621 csaparksandrec.com 0 19431693 2011-09-18 13:33:42
2432622 swhgolf.com 0 20212033 2011-09-18 13:33:46
2432623 surfpdf.com 0 No Rank 2011-09-18 13:33:47
2432624 deltaduemila.it 0 838402 2011-09-18 13:33:47
2432625 thingsihavesaid.blogspot.com 0 No Rank 2011-09-18 13:33:48
2432626 crystalglacierwater.com 0 16585381 2011-09-18 13:33:49
2432627 drav.com.tw 0 21752284 2011-09-18 13:33:50
2432628 techpdf.org 0 No Rank 2011-09-18 13:33:50
2432629 cruurbanlounge.com 0 6581603 2011-09-18 13:33:51
2432630 saurushotel.it 0 No Rank 2011-09-18 13:33:52
2432631 barsurf.net 0 11440825 2011-09-18 13:33:52
2432632 webmail.westnet.com.au 0 50935 2011-09-18 13:33:55
2432633 crosx.net 0 No Rank 2011-09-18 13:33:55
2432634 sfwupgrade.it 0 No Rank 2011-09-18 13:33:56
2432635 maiullaricucine.it 0 7155955 2011-09-18 13:33:58
2432636 lrqa.com.au 0 1459656 2011-09-18 13:33:58
2432637 vsguild.com 0 No Rank 2011-09-18 13:33:59
2432638 theyaketyyak.blogspot.com 0 24337106 2011-09-18 13:33:59
2432639 ovc.it 0 No Rank 2011-09-18 13:34:00
2432640 critterremoverssite.com 0 No Rank 2011-09-18 13:34:02
2432641 www4.kidsfurniturenow.tripod.com 0 661 2011-09-18 13:34:03
2432642 spacedesignsrl.it 0 No Rank 2011-09-18 13:34:04
2432643 webmail02.westnet.com.au 0 50935 2011-09-18 13:34:05
2432644 thirning.blogspot.com 0 11775075 2011-09-18 13:34:07
2432645 cristianpop.com 0 No Rank 2011-09-18 13:34:09
2432646 supermercatidok.it 0 3193960 2011-09-18 13:34:09
2432647 jeda.com.tw 0 13213123 2011-09-18 13:34:10
2432648 mastiffs.it 0 No Rank 2011-09-18 13:34:10
2432649 sexafspraken93165.sexdate8nederland.com 0 No Rank 2011-09-18 13:34:12
2432650 crimeawine.com 0 21165282 2011-09-18 13:34:13
2432651 scuolacarrieri.it 0 No Rank 2011-09-18 13:34:15
2432652 isikom.it 0 26067786 2011-09-18 13:34:16
2432653 heibaiy.com 0 3809596 2011-09-18 13:34:17
2432654 esavory.com 0 No Rank 2011-09-18 13:34:17
2432655 thisischrislee.blogspot.com 0 No Rank 2011-09-18 13:34:19
2432656 crimealove.net 0 No Rank 2011-09-18 13:34:20
2432657 surfpdf.net 0 No Rank 2011-09-18 13:34:20
2432658 cricmad.com 0 20103619 2011-09-18 13:34:20
2432659 portoghesefilippo.it 0 No Rank 2011-09-18 13:34:21
2432660 lovetest.be 0 No Rank 2011-09-18 13:34:22
2432661 fiplazio.it 0 No Rank 2011-09-18 13:34:23
2432662 cardservices.optus.com.au 0 10362 2011-09-18 13:34:24
2432663 sexadvertenties5647.sexdate8nederland.com 0 No Rank 2011-09-18 13:34:25
2432664 criaroutraescola.com 0 No Rank 2011-09-18 13:34:26
2432665 u.tamasolusi.com 0 1512370 2011-09-18 13:34:28
2432666 lanuovaenergia.it 0 12970401 2011-09-18 13:34:28
2432667 crescentviewcondominium.com 0 No Rank 2011-09-18 13:34:30
2432668 neonatologia-online.it 0 16882360 2011-09-18 13:34:30
2432669 cardiov.com 0 No Rank 2011-09-18 13:34:31
2432670 flessocart.it 0 No Rank 2011-09-18 13:34:34
2432671 crepescatering.com 0 10246381 2011-09-18 13:34:35
2432672 sugarfreemusic.it 0 26212887 2011-09-18 13:34:37
2432673 creditospersonales2000.com 0 No Rank 2011-09-21 15:37:22
2432674 frogster.de 0 122907 2011-09-18 13:34:37
2432675 thor-trailer.blogspot.com 0 No Rank 2011-09-18 13:34:39
2432676 creditlord.com 0 14004014 2011-09-18 13:34:39
2432677 deccan.cbox.ws 0 4663 2011-09-18 13:34:40
2432678 fascobj.com 0 14156198 2011-09-18 13:34:41
2432679 ecare.optus.com.au 0 10362 2011-09-18 13:34:41
2432680 empacol.org 0 3382793 2011-09-18 13:34:41
2432681 mc.molds.cn 0 111067 2011-09-18 13:34:42
2432682 thrutheatticdoor2.blogspot.com 0 No Rank 2011-09-18 13:34:43
2432683 digesu.it 0 No Rank 2011-09-18 13:34:45
2432684 lavocedellacampania.it 0 No Rank 2011-09-18 13:34:45
2432685 winefax.com 0 No Rank 2011-09-18 13:34:46
2432686 creditdad.com 0 10208725 2011-09-18 13:34:46
2432687 credit-moto.net 0 No Rank 2011-09-18 13:34:47
2432688 bimbits.com 0 No Rank 2011-09-18 13:34:49
2432689 thumperpunk.blogspot.com 0 No Rank 2011-09-18 13:34:51
2432690 panificiolamaggiore.it 0 13797032 2011-09-18 13:34:51
2432691 creativschik.ru 0 No Rank 2011-09-18 13:34:52
2432692 howtogetfreedisneylandtickets.blogspot.com 0 No Rank 2011-09-18 13:34:53
2432693 spacewine.it 0 No Rank 2011-09-18 13:34:53
2432694 creativewoodcarving.com 0 No Rank 2011-09-18 13:34:56
2432695 tight--jeans.blogspot.com 0 27110091 2011-09-18 13:34:56
2432696 assoprofaltamura.it 0 No Rank 2011-09-18 13:34:57
2432697 creativepavingsolutions.com 0 No Rank 2011-09-18 13:34:57
2432698 titanjx.com 0 No Rank 2011-09-18 13:34:58
2432699 omgiken.com 0 No Rank 2011-09-18 13:35:01
2432700 creativeorthopaedics.com 0 No Rank 2011-09-18 13:35:03
2432701 access.net.au 0 24917094 2011-09-18 13:35:03
2432702 lionsaltamurahost.it 0 No Rank 2011-09-18 13:35:03
2432703 tigerturf.blogspot.com 0 20443025 2011-09-18 13:35:05
2432704 klikshop.bg 0 362061 2011-09-18 13:35:07
2432705 italiadomani.it 0 No Rank 2011-09-18 13:35:08
2432706 crazy-media.de 0 5162297 2011-09-18 13:35:08
2432707 pasticceriareale.it 0 No Rank 2011-09-18 13:35:09
2432708 cray-inc.com 0 No Rank 2011-09-21 11:59:16
2432709 timesharescamsupdate.blogspot.com 0 9031108 2011-09-18 13:35:09
2432710 bejapan.com 0 No Rank 2011-09-18 13:35:10
2432711 edspecs.net 0 No Rank 2011-09-18 13:35:12
2432712 filcordon.it 0 No Rank 2011-09-18 13:35:14
2432713 tmcnews.blogspot.com 0 3710300 2011-09-18 13:35:15
2432714 paretiattrezzate.it 0 25453795 2011-09-18 13:35:16
2432715 crapplasticsurgery.com 0 11784269 2011-09-21 14:31:37
2432716 olive66.com 0 No Rank 2011-09-18 13:35:17
2432717 ppt51.com 0 No Rank 2011-09-18 13:35:17
2432718 altamurgia.it 0 No Rank 2011-09-18 13:35:20
2432719 tmcnewsinfo.blogspot.com 0 No Rank 2011-09-18 13:35:22
2432720 kentfoc.com 0 No Rank 2011-09-18 13:35:26
2432721 livingdivaniletto.it 0 No Rank 2011-09-18 13:35:26
2432722 doganis.com 0 No Rank 2011-09-21 15:11:19
2432723 marioadinolfi.it 0 No Rank 2011-09-18 13:35:29
2432724 optusnet.optin.com.au 0 732254 2011-09-18 13:35:30
2432725 bavusoimpianti.it 0 No Rank 2011-09-18 13:35:30
2432726 crankyblog.com 0 No Rank 2011-09-21 12:29:58
2432727 crane-designs.com 0 11755987 2011-09-18 13:35:33
2432728 fedgycc.org 0 No Rank 2011-09-18 13:35:34
2432729 resfest.com 0 16661625 2011-09-18 13:35:34
2432730 tusaero.com 0 No Rank 2011-09-18 13:35:35
2432731 goemans.com 0 1980455 2011-09-18 13:35:36
2432732 carthage.it 0 No Rank 2011-09-18 13:35:37
2432733 ultrasonik.it 0 6878182 2011-09-18 13:35:38
2432734 dddoyle.com 0 No Rank 2011-09-18 13:35:39
2432735 craigsbar.com 0 No Rank 2011-09-18 13:35:41
2432736 hokutoaudioteca.it 0 17958371 2011-09-18 13:35:43
2432737 scuolaevolley.it 0 17067714 2011-09-18 13:35:43
2432738 gebauto.com 0 14216387 2011-09-18 13:35:44
2432739 craftymemes.com 0 8428495 2011-09-18 13:35:45
2432740 craftersonline.com 0 No Rank 2011-09-18 13:35:48
2432741 growzup.com 0 18339099 2011-09-18 13:35:49
2432742 percocosideredil.it 0 No Rank 2011-09-18 13:35:50
2432743 jqrc.com.cn 0 27376893 2011-09-18 13:35:50
2432744 ironftp.com 0 10430947 2011-09-18 13:35:50
2432745 wibitex.it 0 No Rank 2011-09-18 13:35:50
2432746 cradleroll.com 0 No Rank 2011-09-18 13:35:54
2432747 vitobarone.it 0 838402 2011-09-18 13:35:54
2432748 parentesigrafiche.it 0 6183934 2011-09-18 13:35:56
2432749 celebricious.com 0 1747308 2011-09-18 13:35:59
2432750 v8miata.net 0 9343159 2011-09-18 13:35:59
2432751 compamed.de 0 1354854 2011-09-18 13:36:00
2432752 lovicasamobili.it 0 No Rank 2011-09-18 13:36:00
2432753 solarpeq.de 0 5180045 2011-09-18 13:36:04
2432754 leonessavolley.it 0 No Rank 2011-09-18 13:36:05
2432755 eurocis.com 0 741202 2011-09-18 13:36:06
2432756 ilbauletto.it 0 No Rank 2011-09-18 13:36:06
2432757 cpenedu.com 0 No Rank 2011-09-18 13:36:09
2432758 driadebari.it 0 No Rank 2011-09-18 13:36:10
2432759 platolearningenvironment.net 0 No Rank 2011-09-18 13:36:12
2432760 calther.com 0 No Rank 2011-09-18 13:36:14
2432761 masseriedidattiche.it 0 No Rank 2011-09-18 13:36:15
2432762 hccfood.com 0 No Rank 2011-09-18 13:36:15
2432763 cpoga.org 0 19505083 2011-09-18 13:36:15
2432764 cpcamerica.com 0 12153440 2011-09-18 13:36:15
2432765 jenalee.biz 0 14982508 2011-09-18 13:36:16
2432766 lsjinfo.net 0 No Rank 2011-09-21 13:24:14
2432767 cpacashempire.com 0 22205023 2011-09-18 13:36:19
2432768 nidal48.net 0 No Rank 2011-09-18 13:36:20
2432769 cinegiornalisti.it 0 14328041 2011-09-18 13:36:20
2432770 espir.co.il 0 11995090 2011-09-18 13:36:20
2432771 consorzioasibari.it 0 No Rank 2011-09-18 13:36:21
2432772 covertmotorsports.net 0 No Rank 2011-09-18 13:36:23
2432773 coveragebydesign.com 0 No Rank 2011-09-18 13:36:27
2432774 casablancabazar.it 0 18275757 2011-09-18 13:36:27
2432775 lsfedericoaltamura.it 0 No Rank 2011-09-18 13:36:27
2432776 podradio.nu 0 2698059 2011-09-18 13:36:29
2432777 sallom.uwantx.com 0 3088791 2011-09-18 13:36:30
2432778 shikawa.net 0 No Rank 2011-09-21 14:52:06
2432779 gobyaoi.com 0 13609420 2011-09-18 13:36:33
2432780 antoniolorussoarredamenti.it 0 No Rank 2011-09-18 13:36:33
2432781 tecsuce.net 0 No Rank 2011-09-18 13:36:34
2432782 siciliamo.it 0 No Rank 2011-09-18 13:36:34
2432783 courtesyhondasanford.net 0 No Rank 2011-09-18 13:36:35
2432784 ochootu.com 0 No Rank 2011-09-18 13:36:35
2432785 phonechoice.com.au 0 329802 2011-09-18 13:36:35
2432786 courierarizona.com 0 No Rank 2011-09-18 13:36:36
2432787 pury.com.cn 0 No Rank 2011-09-18 13:36:36
2432788 china31.com 0 8926136 2011-09-18 13:36:36
2432789 tecnoblend.it 0 No Rank 2011-09-18 13:36:39
2432790 countryxmas.net 0 No Rank 2011-09-18 13:36:41
2432791 waihuii.com 0 27406374 2011-09-18 13:36:42
2432792 redasdi.com 0 No Rank 2011-09-18 13:36:44
2432793 bccaltamurgia.it 0 7906010 2011-09-18 13:36:45
2432794 sambong.biz 0 No Rank 2011-09-18 13:36:47
2432795 couleur-fl.com 0 No Rank 2011-09-21 15:15:01
2432796 koonkru.com 0 No Rank 2011-09-18 13:36:47
2432797 countryfieldsatfishers.com 0 5270741 2011-09-18 13:36:49
2432798 haircaretest.com 0 No Rank 2011-09-18 13:36:50
2432799 ventricellimangimi.it 0 No Rank 2011-09-18 13:36:51
2432800 frproxy.net 0 6054573 2011-09-18 13:36:52
2432801 cougarsales.com 0 No Rank 2011-09-18 13:36:52
2432802 cinematusei.it 0 No Rank 2011-09-18 13:36:52
2432803 coudroncharolais.com 0 No Rank 2011-09-18 13:36:54
2432804 net2mobile.com.au 0 5979946 2011-09-18 13:36:55
2432805 cwbs.edu.hk 0 25536766 2011-09-18 13:36:56
2432806 parcodomingo.it 0 No Rank 2011-09-18 13:36:56
2432807 icdl.org.sg 0 7031945 2011-09-18 13:36:57
2432808 cottom.org 0 No Rank 2011-09-18 13:36:57
2432809 hipserv.com 0 472958 2011-09-21 15:11:22
2432810 costablanca-villas.com 0 17640456 2011-09-18 13:37:00
2432811 archin.it 0 838402 2011-09-18 13:37:02
2432812 cosmofoods.net 0 No Rank 2011-09-18 13:37:06
2432813 cosmopolic.com 0 No Rank 2011-09-18 13:37:06
2432814 pietra-viva.it 0 No Rank 2011-09-18 13:37:09
2432815 2580731.com 0 No Rank 2011-09-18 13:37:10
2432816 cosbuilders.com 0 No Rank 2011-09-18 13:37:11
2432817 redprayd.ru 0 10207658 2011-09-18 13:37:11
2432818 tyjiade.com 0 No Rank 2011-09-18 13:37:14
2432819 puglia.transplantnet.it 0 No Rank 2011-09-18 13:37:14
2432820 cosaraenergy.com 0 No Rank 2011-09-18 13:37:14
2432821 manlogistics.com.au 0 4504909 2011-09-21 15:33:48
2432822 neyti4435.k0t.biz 0 No Rank 2011-09-18 13:37:18
2432823 newdial.it 0 No Rank 2011-09-18 13:37:19
2432824 soccerartist.it 0 No Rank 2011-09-18 13:37:20
2432825 abe1djs.com 0 No Rank 2011-09-18 13:37:21
2432826 laromasiamonoi.it 0 13940522 2011-09-18 13:37:21
2432827 cosabellafilms.com 0 No Rank 2011-09-18 13:37:24
2432828 gaet.com.vn 0 3205373 2011-09-18 13:37:25
2432829 cagnazzimoto.it 0 No Rank 2011-09-18 13:37:25
2432830 corzeame.com 0 No Rank 2011-09-18 13:37:26
2432831 fantasika.it 0 No Rank 2011-09-18 13:37:27
2432832 cn-ccwc.com 0 No Rank 2011-09-18 13:37:32
2432833 corvettepartscenter.com 0 No Rank 2011-09-18 13:37:32
2432834 coseco.it 0 No Rank 2011-09-18 13:37:34
2432835 corruptxlsmfile.com 0 28991004 2011-09-18 13:37:36
2432836 webmail.netspace.net.au 0 103128 2011-09-18 13:37:37
2432837 yuhe.net.cn 0 9936383 2011-09-18 13:37:39
2432838 protecta.it 0 No Rank 2011-09-18 13:37:42
2432839 unifit.it 0 606267 2011-09-18 13:37:45
2432840 correctiveexercise.net 0 No Rank 2011-09-21 14:31:29
2432841 au-ciad.org 0 25745393 2011-09-18 13:37:50
2432842 ayc-llc.com 0 No Rank 2011-09-18 13:37:50
2432843 sfoa.netspace.net.au 0 103128 2011-09-18 13:37:50
2432844 corporativomae.com 0 No Rank 2011-09-18 13:37:50
2432845 latinabaseball.it 0 No Rank 2011-09-18 13:37:51
2432846 nana.daa.jp 0 22404 2011-09-18 13:37:51
2432847 corporatelibrary.biz 0 No Rank 2011-09-18 13:37:51
2432848 stieprox.de 0 5456858 2011-09-18 13:37:52
2432849 topcaraudio.it 0 No Rank 2011-09-18 13:37:52
2432850 tically.com 0 No Rank 2011-09-18 13:37:54
2432851 iltrogolo.it 0 27716259 2011-09-18 13:37:56
2432852 coronadovets.com 0 18596044 2011-09-18 13:37:56
2432853 coreveritas.org 0 No Rank 2011-09-18 13:37:57
2432854 altalegumi.it 0 No Rank 2011-09-18 13:37:58
2432855 corepestsolutions.com 0 No Rank 2011-09-18 13:38:01
2432856 lckings.org 0 No Rank 2011-09-18 13:38:01
2432857 wsheart.com 0 No Rank 2011-09-18 13:38:01
2432858 xbox.org.uk 0 No Rank 2011-09-18 13:38:02
2432859 maryday.com 0 No Rank 2011-09-18 13:38:02
2432860 hagapool.jp 0 No Rank 2011-09-18 13:38:03
2432861 moramarco.it 0 11771188 2011-09-18 13:38:04
2432862 viareggioturismo.it 0 25910528 2011-09-18 13:38:04
2432863 core4advisors.com 0 No Rank 2011-09-18 13:38:05
2432864 core180.com 0 11392646 2011-09-18 13:38:08
2432865 pappalardolio.it 0 No Rank 2011-09-18 13:38:10
2432866 shansol.com 0 No Rank 2011-09-18 13:38:10
2432867 piantechianese.it 0 No Rank 2011-09-18 13:38:11
2432868 copytekgraphics.com 0 No Rank 2011-09-18 13:38:13
2432869 copie-conforme.cc 0 7990263 2011-09-18 13:38:15
2432870 aaacellulari.it 0 No Rank 2011-09-18 13:38:16
2432871 lrqa.com.sg 0 1459656 2011-09-18 13:38:17
2432872 hwayoun.com 0 No Rank 2011-09-18 13:38:17
2432873 cooljaz.net 0 19966566 2011-09-18 13:38:18
2432874 brisbane.citysearch.com.au 0 60405 2011-09-18 13:38:19
2432875 hkhobby.com 0 No Rank 2011-09-18 13:38:21
2432876 coolestwebgadgets.com 0 No Rank 2011-09-18 13:38:22
2432877 coolersdrivethru.com 0 No Rank 2011-09-18 13:38:24
2432878 humphrey.ws 0 No Rank 2011-09-18 13:38:24
2432879 apop.com.cn 0 6044625 2011-09-21 14:34:52
2432880 emakhet.com 0 No Rank 2011-09-18 13:38:27
2432881 perth.citysearch.com.au 0 60405 2011-09-18 13:38:27
2432882 www4.conradcollie102.insanejournal.com 0 5148 2011-09-18 13:38:28
2432883 cookiejarauctions.net 0 No Rank 2011-09-18 13:38:29
2432884 cooke-familylaw.com 0 No Rank 2011-09-18 13:38:32
2432885 jfzz.net.cn 0 16248828 2011-09-18 13:38:34
2432886 kidney.org.au 0 769149 2011-09-18 13:38:37
2432887 adelaide.citysearch.com.au 0 60405 2011-09-18 13:38:38
2432888 froggy.com.au 0 27528376 2011-09-18 13:38:40
2432889 genband.com 0 635233 2011-09-18 13:38:40
2432890 cookcountyteaparty.com 0 8894012 2011-09-18 13:38:44
2432891 hibarrie.ca 0 5494010 2011-09-18 13:38:45
2432892 article.allkidsfurniture.weebly.com 0 No Rank 2011-09-18 13:38:46
2432893 controlsupply.net 0 No Rank 2011-09-18 13:38:46
2432894 hobart.citysearch.com.au 0 60405 2011-09-18 13:38:46
2432895 controllerservice.com 0 18730873 2011-09-18 13:38:50
2432896 mergard.citysearch.com.au 0 60405 2011-09-18 13:38:55
2432897 kasax.co.jp 0 No Rank 2011-09-18 13:38:55
2432898 uusikaupunki.fi 0 1172707 2011-09-18 13:38:55
2432899 hpshop.eprice.it 0 8415 2011-09-18 13:38:56
2432900 uetou.co.jp 0 8573306 2011-09-18 13:38:57
2432901 ipres.it 0 8689050 2011-09-18 13:38:57
2432902 hardingshardware.citysearch.com.au 0 60405 2011-09-18 13:39:02
2432903 contentequalsmoney.com 0 1358637 2011-09-18 13:39:03
2432904 contractorsmakemesick.com 0 No Rank 2011-09-18 13:39:06
2432905 bimsklep.pl 0 2055723 2011-09-18 13:39:09
2432906 contemporary.org 0 8213468 2011-09-18 13:39:09
2432907 jamessquirebrewhouse.citysearch.com.au 0 60405 2011-09-18 13:39:11
2432908 construction-details.com 0 No Rank 2011-09-18 13:39:15
2432909 webfire.biz 0 513989 2011-09-18 13:39:16
2432910 jimstavern.citysearch.com.au 0 60405 2011-09-18 13:39:17
2432911 consorziopedron.com 0 11878416 2011-09-18 13:39:18
2432912 consorzioclara.com 0 No Rank 2011-09-21 14:49:06
2432913 get4all.biz 0 604284 2011-09-18 13:39:21
2432914 ralphmoore.citysearch.com.au 0 60405 2011-09-18 13:39:23
2432915 conservationcalling.com 0 14115221 2011-09-18 13:39:24
2432916 mealagh.com 0 No Rank 2011-09-18 13:39:25
2432917 connectivetechnologysolutions.com 0 No Rank 2011-09-18 13:39:28
2432918 conflictcommunications.com 0 20720293 2011-09-18 13:39:30
2432919 swami.citysearch.com.au 0 60405 2011-09-18 13:39:30
2432920 alfanet.it 0 529830 2011-09-18 13:39:31
2432921 akdrive.org 0 No Rank 2011-09-18 13:39:31
2432922 girlsbcn.es 0 436620 2011-09-18 13:39:34
2432923 aluminiumshopfronts.citysearch.com.au 0 60405 2011-09-18 13:39:38
2432924 conestogachristian.org 0 No Rank 2011-09-18 13:39:38
2432925 qcglass.com 0 No Rank 2011-09-18 13:39:39
2432926 condomanagement.com 0 23479675 2011-09-18 13:39:39
2432927 toshibashop.it 0 4862024 2011-09-18 13:39:40
2432928 2007.cfw.cn 0 18943 2011-09-18 13:39:40
2432929 centsiblesisters.info 0 18491036 2011-09-18 13:39:43
2432930 shop.toshiba.it 0 449102 2011-09-18 13:39:44
2432931 condesaquilting.com 0 8015391 2011-09-18 13:39:45
2432932 randallsmith.citysearch.com.au 0 60405 2011-09-18 13:39:45
2432933 pro-mark.ru 0 12485170 2011-09-18 13:39:46
2432934 concertsfortroops.org 0 25353497 2011-09-18 13:39:47
2432935 humnoke.com 0 No Rank 2011-09-18 13:39:49
2432936 compuvisionweb.com 0 No Rank 2011-09-18 13:39:49
2432937 gogirlgoatlanta.kintera.org 0 13356 2011-09-18 13:39:52
2432938 manabouttown.citysearch.com.au 0 60405 2011-09-18 13:39:53
2432939 besterd.com 0 No Rank 2011-09-18 13:39:54
2432940 socialmediarocketeer.com 0 No Rank 2011-09-18 13:39:56
2432941 alteanet.it 0 5205584 2011-09-18 13:39:57
2432942 a1-generator.com 0 24897641 2011-09-18 13:39:57
2432943 compuentrega.net 0 No Rank 2011-09-18 13:39:57
2432944 nyader5477.k0t.biz 0 No Rank 2011-09-18 13:39:57
2432945 ijoyfit.com 0 No Rank 2011-09-18 13:39:58
2432946 epson.eprice.it 0 8415 2011-09-18 13:39:59
2432947 cdautopaint.citysearch.com.au 0 60405 2011-09-18 13:40:00
2432948 wirelessspeakersystemreviews.com 0 20863061 2011-09-18 13:40:01
2432949 computerware.in 0 5370644 2011-09-18 13:40:02
2432950 nodgarb.com 0 No Rank 2011-09-18 13:40:04
2432951 comptoirduconfort.com 0 4247247 2011-09-18 13:40:05
2432952 compostsupply.net 0 No Rank 2011-09-18 13:40:07
2432953 4trade.it 0 6592739 2011-09-18 13:40:08
2432954 brisgenetics.citysearch.com.au 0 60405 2011-09-18 13:40:09
2432955 benet.co.nz 0 No Rank 2011-09-18 13:40:11
2432956 compliancereviewservices.net 0 No Rank 2011-09-21 14:16:15
2432957 competitionsound.com 0 No Rank 2011-09-18 13:40:12
2432958 saem-fotovoltaico.it 0 4715365 2011-09-18 13:40:13
2432959 svat.com.ua 0 No Rank 2011-09-18 13:40:13
2432960 soo-lam.com 0 No Rank 2011-09-18 13:40:14
2432961 traditionalfunerals.citysearch.com.au 0 60405 2011-09-18 13:40:15
2432962 compasstechnologysolutions.com 0 12262621 2011-09-18 13:40:16
2432963 compasscloseouts.com 0 14618284 2011-09-18 13:40:17
2432964 photish.com 0 21451319 2011-09-18 13:40:18
2432965 banzai.it 0 147113 2011-09-18 13:40:20
2432966 yulefan.com 0 No Rank 2011-09-18 13:40:21
2432967 woodbridgeretirementvillage.citysearch.com.au 0 60405 2011-09-18 13:40:22
2432968 peargle.com 0 No Rank 2011-09-18 13:40:24
2432969 comparelifeinsurancepolicies.com 0 22085081 2011-09-18 13:40:24
2432970 vacanzeinpuglia.it 0 1845017 2011-09-18 13:40:25
2432971 ksiezpol.pl 0 No Rank 2011-09-18 13:40:26
2432972 compareinsurancetoday.com 0 1381570 2011-09-18 13:40:27
2432973 aaaradiator.citysearch.com.au 0 60405 2011-09-18 13:40:29
2432974 jamfgold2535.k0t.biz 0 No Rank 2011-09-18 13:40:30
2432975 danbern.redacorn.net 0 14557496 2011-09-18 13:40:32
2432976 bidda.it 0 1981477 2011-09-18 13:40:35
2432977 periwinkle.citysearch.com.au 0 60405 2011-09-18 13:40:36
2432978 compagnietheophile.org 0 No Rank 2011-09-18 13:40:36
2432979 minitools.it 0 4259283 2011-09-18 13:40:36
2432980 compareinsurancecompany.com 0 No Rank 2011-09-18 13:40:37
2432981 awalumet.pl 0 No Rank 2011-09-18 13:40:38
2432982 reno-bud.pl 0 12224786 2011-09-18 13:40:38
2432983 greatfunsite.com 0 510608 2011-09-18 13:40:39
2432984 lrqa.com.hk 0 1459656 2011-09-18 13:40:39
2432985 tonro2617.k0t.biz 0 No Rank 2011-09-18 13:40:42
2432986 greatfunonline.com 0 1599171 2011-09-18 13:40:42
2432987 remoteangel.it 0 4919346 2011-09-18 13:40:42
2432988 taxiclub.citysearch.com.au 0 60405 2011-09-18 13:40:43
2432989 communicationsmastery.com 0 No Rank 2011-09-18 13:40:43
2432990 bosslun.com 0 10301818 2011-09-21 14:42:43
2432991 picdish.com 0 3081855 2011-09-18 13:40:44
2432992 old.med.visalotteryforum.com 0 23876787 2011-09-18 13:40:46
2432993 giardinodeitrulli.it 0 9624987 2011-09-18 13:40:47
2432994 commercialventures.com 0 No Rank 2011-09-18 13:40:47
2432995 mofen.hazsj.cn 0 288948 2011-09-18 13:40:49
2432996 wackerneuson.com 0 396407 2011-09-18 13:40:51
2432997 commencalownersclub.com 0 4215662 2011-09-18 13:40:51
2432998 okoriteppanyaki.citysearch.com.au 0 60405 2011-09-18 13:40:51
2432999 macnil.it 0 6033134 2011-09-18 13:40:55